Regional Weather Roundup
Issued by NWS Albany, NY

Home | Current Version | Previous Version | Text Only | Print | Product List | Glossary On
Versions: 1 2 3 4 5 6 7 8 9 10 11 12 13 14 15 16 17 18 19 20 21 22 23 24 25 26 27 28 29 30 31 32 33 34 35 36 37 38 39 40 41 42 43 44 45 46 47 48 49 50
000
ASUS41 KALY 250710
RWRALY

NEW YORK STATE HOURLY WEATHER ROUNDUP
NATIONAL WEATHER SERVICE ALBANY NY
300 AM EDT SAT APR 25 2015

NOTE: "FAIR" INDICATES FEW OR NO CLOUDS BELOW 12,000 FEET WITH NO
SIGNIFICANT WEATHER AND/OR NO OBSTRUCTIONS TO VISIBILITY.

NYZ032-033-038>043-046>054-057>066-NYZ062>081-250800-
EAST


CITY           SKY/WX    TMP DP  RH WIND       PRES   REMARKS
ALBANY         PTCLDY    34  22  61 NW7       29.87F WCI  28
GLENS FALLS    CLEAR     32  21  64 CALM      29.85S
POUGHKEEPSIE   CLEAR     34  21  59 W8        29.87S WCI  27
NEWBURGH       CLEAR     32  23  69 SW7       29.88F WCI  26
MONTGOMERY     CLEAR     33  21  61 W8        29.87F WCI  26
WHITE PLAINS   CLEAR     35  20  54 W9        29.86F WCI  28
ISLIP          CLEAR     33  21  61 SW7       29.87S WCI  27
NEW YORK CITY  CLEAR     39  22  50 NW14      29.90F WCI  31
CENTRAL PARK   CLEAR     39  20  46 VRB6      29.92F WCI  35
$$

NYZ005>009-017-018-044>046-055-056-250800-
CENTRAL


CITY           SKY/WX    TMP DP  RH WIND       PRES   REMARKS
FULTON         CLEAR     29  24  82 W6        29.94F WCI  23
SYRACUSE       CLEAR     28  23  81 W9        29.94F WCI  19
ROME           CLEAR     28  22  78 NW5       29.93S WCI  23
ELMIRA         CLEAR     28  22  78 CALM      29.94F
BINGHAMTON     CLEAR     29  21  72 NW7       29.88F WCI  22
MONTICELLO     CLEAR     28  19  69 W10G16    29.86F WCI  19
$$

NYZ026>034-041>043-250800-
NORTH


CITY           SKY/WX    TMP DP  RH WIND       PRES   REMARKS
WATERTOWN      CLEAR     29  24  82 NE5       29.93S WCI  24
FORT DRUM      NOT AVBL
MASSENA        PTCLDY    32  21  64 W8        29.92S WCI  25
SARANAC LAKE   CLOUDY    29  19  66 VRB6      29.81R WCI  23
PLATTSBURGH    CLOUDY    36  20  52 NW9G16    29.84S WCI  29
$$

NYZ001>004-010>016-019>021-250800-
WEST


CITY           SKY/WX    TMP DP  RH WIND       PRES   REMARKS
NIAGARA FALLS  CLEAR     27  21  78 CALM      29.99S
BUFFALO        CLEAR     31  23  72 CALM      29.99F
DUNKIRK        PTCLDY    30  25  81 NE3       29.99F
JAMESTOWN      PTCLDY    30  18  59 CALM      29.93F
WELLSVILLE     CLEAR     27  18  69 NW7       29.92F WCI  19
ROCHESTER      CLEAR     31  23  72 NW7       29.98F WCI  24
PENN YAN       CLEAR     32  21  64 NW8       29.94F WCI  25
$$

             KEY
       WCI = WIND CHILL INDEX
       VSB = VISIBILITY
       HX  = HEAT INDEX
$$


USA.gov is the U.S. government's official web portal to all federal, state and local government web resources and services.